Weather History for KCVH - February, 2014

Change the Weather History Date:

Wednesday, February 26, 2014

  Actual Average (KSNS) Record (KSNS)
Temperature  
Mean Temperature 56 °F 54 °F  
Max Temperature 64 °F 64 °F 83 °F (1992)
Min Temperature 48 °F 44 °F 28 °F (1971)
Degree Days  
Heating Degree Days 9 11  
Month to date heating degree days 314  
Since 1 July heating degree days 1792  
Cooling Degree Days 0 0  
Month to date cooling degree days 0  
Year to date cooling degree days 0  
Growing Degree Days 6 (Base 50)    
Moisture  
Dew Point 52 °F    
Average Humidity 86    
Maximum Humidity 100    
Minimum Humidity 64    
Precipitation  
Precipitation 0.19 in 0.09 in 0.71 in (2014)
Month to date precipitation 2.32  
Year to date precipitation 4.92  
Sea Level Pressure  
Sea Level Pressure 29.89 in    
Wind  
Wind Speed 7 mph (SSE)    
Max Wind Speed 24 mph    
Max Gust Speed 31 mph    
Visibility 9 miles    
Events      
T = Trace of Precipitation, MM = Missing Value Source: NWS Daily Summary

Daily Weather History Graph

Daily Weather History Graph

Search for Another Location

Airport or City:

Trip Planner

Search our weather history database for the weather conditions in past years. The results will help you decide how hot, cold, wet, or windy it might be!

Date:

Astronomy

Feb. 26, 2014 Rise Set
Actual Time 6:40 AM PST 5:57 PM PST
Civil Twilight 6:14 AM PST 6:23 PM PST
Nautical Twilight 5:44 AM PST 6:53 PM PST
Astronomical Twilight 5:14 AM PST 7:23 PM PST
Moon 4:27 AM PST (2/26) 3:20 PM PST (2/26)
Length of Visible Light 12h 09m
Length of Day
11h 16m
Waning Crescent, 9% of the Moon is Illuminated
Feb 26
Waning Crescent
Mar 1
New
Mar 8
First Quarter
Mar 16
Full
Mar 23
Last Quarter

Hourly Weather History & Observations

Time (PST) Temp. Dew Point Humidity Pressure Visibility Wind Dir Wind Speed Gust Speed Precip Events Conditions
12:10 AM 48.2 °F 48.2 °F 100% 29.97 in 10.0 mi NW 3.5 mph - N/A   Scattered Clouds
12:30 AM 50.0 °F 48.2 °F 94% 29.98 in 10.0 mi Calm Calm - N/A   Mostly Cloudy
12:50 AM 50.0 °F 46.4 °F 87% 29.98 in 10.0 mi NE 4.6 mph - N/A   Partly Cloudy
1:10 AM 50.0 °F 46.4 °F 87% 29.98 in 10.0 mi NE 3.5 mph - N/A   Scattered Clouds
1:30 AM 50.0 °F 46.4 °F 87% 29.98 in 10.0 mi Calm Calm - N/A   Clear
1:50 AM 50.0 °F 48.2 °F 94% 29.98 in 10.0 mi Calm Calm - N/A   Partly Cloudy
2:10 AM 50.0 °F 48.2 °F 94% 29.98 in 10.0 mi SE 3.5 mph - N/A   Partly Cloudy
2:30 AM 50.0 °F 46.4 °F 87% 29.98 in 10.0 mi Calm Calm - N/A   Scattered Clouds
2:50 AM 48.2 °F 46.4 °F 93% 29.98 in 10.0 mi Calm Calm - N/A   Mostly Cloudy
3:10 AM 50.0 °F 48.2 °F 94% 29.99 in 10.0 mi SW 5.8 mph - N/A   Mostly Cloudy
3:30 AM 50.0 °F 48.2 °F 94% 29.98 in 10.0 mi SSW 3.5 mph - N/A   Mostly Cloudy
3:50 AM 51.8 °F 48.2 °F 88% 30.00 in 10.0 mi SSW 4.6 mph - N/A   Mostly Cloudy
4:10 AM 51.8 °F 48.2 °F 88% 29.98 in 10.0 mi South 3.5 mph - N/A   Scattered Clouds
4:30 AM 51.8 °F 48.2 °F 88% 29.97 in 10.0 mi East 3.5 mph - N/A   Clear
4:50 AM 51.8 °F 48.2 °F 88% 29.96 in 10.0 mi Calm Calm - N/A   Clear
5:10 AM 50.0 °F 48.2 °F 94% 29.95 in 10.0 mi Calm Calm - N/A   Clear
5:30 AM 51.8 °F 48.2 °F 88% 29.94 in 10.0 mi Calm Calm - N/A   Clear
5:50 AM 51.8 °F 48.2 °F 88% 29.95 in 10.0 mi Calm Calm - N/A   Clear
6:10 AM 51.8 °F 48.2 °F 88% 29.95 in 10.0 mi ESE 3.5 mph - N/A   Clear
6:30 AM 53.6 °F 48.2 °F 82% 29.95 in 10.0 mi SE 12.7 mph - N/A   Clear
6:50 AM 57.2 °F 46.4 °F 67% 29.96 in 10.0 mi SE 11.5 mph - N/A   Clear
7:10 AM 57.2 °F 46.4 °F 67% 29.96 in 10.0 mi SE 10.4 mph - N/A   Partly Cloudy
7:30 AM 57.2 °F 46.4 °F 67% 29.96 in 10.0 mi SSE 11.5 mph - N/A   Scattered Clouds
7:50 AM 57.2 °F 46.4 °F 67% 29.96 in 10.0 mi South 6.9 mph - N/A   Clear
8:10 AM 53.6 °F 48.2 °F 82% 29.97 in 10.0 mi SW 5.8 mph - N/A   Clear
8:30 AM 53.6 °F 48.2 °F 82% 29.98 in 10.0 mi WNW 4.6 mph - N/A   Partly Cloudy
8:50 AM 53.6 °F 48.2 °F 82% 29.97 in 10.0 mi NNW 5.8 mph - N/A   Partly Cloudy
9:10 AM 53.6 °F 50.0 °F 88% 29.96 in 9.0 mi Calm Calm - N/A   Partly Cloudy
9:30 AM 55.4 °F 51.8 °F 88% 29.97 in 7.0 mi WSW 3.5 mph - N/A   Scattered Clouds
9:50 AM 55.4 °F 51.8 °F 88% 29.97 in 9.0 mi SSW 3.5 mph - 0.01 in   Partly Cloudy
10:10 AM 57.2 °F 53.6 °F 88% 29.97 in 10.0 mi South 5.8 mph - 0.01 in   Partly Cloudy
10:30 AM 57.2 °F 53.6 °F 88% 29.97 in 5.0 mi SSW 5.8 mph - 0.01 in   Mostly Cloudy
10:50 AM 57.2 °F 53.6 °F 88% 29.97 in 10.0 mi SSE 5.8 mph - 0.01 in   Mostly Cloudy
11:10 AM 59.0 °F 55.4 °F 88% 29.96 in 9.0 mi ESE 15.0 mph 18.4 mph N/A   Scattered Clouds
11:30 AM 60.8 °F 55.4 °F 82% 29.94 in 10.0 mi ESE 17.3 mph - N/A   Scattered Clouds
11:50 AM 60.8 °F 53.6 °F 77% 29.92 in 10.0 mi SE 16.1 mph 24.2 mph N/A   Mostly Cloudy
12:10 PM 62.6 °F 53.6 °F 72% 29.92 in 10.0 mi SE 18.4 mph 24.2 mph N/A   Mostly Cloudy
12:30 PM 62.6 °F 53.6 °F 72% 29.90 in 10.0 mi SE 21.9 mph - N/A   Mostly Cloudy
12:50 PM 62.6 °F 51.8 °F 68% 29.89 in 10.0 mi SE 19.6 mph 25.3 mph N/A   Overcast
1:10 PM 62.6 °F 51.8 °F 68% 29.88 in 10.0 mi SE 20.7 mph 29.9 mph N/A   Overcast
1:30 PM 64.4 °F 51.8 °F 64% 29.87 in 10.0 mi SE 24.2 mph 28.8 mph N/A   Mostly Cloudy
1:50 PM 62.6 °F 51.8 °F 68% 29.86 in 10.0 mi SE 21.9 mph 27.6 mph N/A   Mostly Cloudy
2:10 PM 62.6 °F 51.8 °F 68% 29.86 in 10.0 mi SE 16.1 mph - N/A   Mostly Cloudy
2:30 PM 62.6 °F 51.8 °F 68% 29.85 in 10.0 mi SE 24.2 mph 31.1 mph N/A   Mostly Cloudy
2:50 PM 62.6 °F 51.8 °F 68% 29.85 in 10.0 mi SE 19.6 mph 29.9 mph N/A   Mostly Cloudy
3:10 PM 60.8 °F 53.6 °F 77% 29.84 in 10.0 mi SE 16.1 mph - N/A   Mostly Cloudy
3:30 PM 60.8 °F 53.6 °F 77% 29.84 in 10.0 mi SE 15.0 mph 25.3 mph N/A   Mostly Cloudy
3:50 PM 60.8 °F 55.4 °F 82% 29.85 in 4.0 mi SSE 10.4 mph - 0.01 in   Mostly Cloudy
4:10 PM 59.0 °F 55.4 °F 88% 29.85 in 2.5 mi SE 9.2 mph - 0.02 in   Overcast
4:30 PM 57.2 °F 57.2 °F 100% 29.83 in 4.0 mi SE 10.4 mph - 0.05 in   Overcast
4:50 PM 57.2 °F 57.2 °F 100% 29.83 in 5.0 mi SE 10.4 mph - 0.06 in   Overcast
5:10 PM 57.2 °F 57.2 °F 100% 29.83 in 4.0 mi SE 10.4 mph - N/A   Mostly Cloudy
5:30 PM 57.2 °F 57.2 °F 100% 29.81 in 3.0 mi ESE 9.2 mph - 0.01 in   Overcast
5:50 PM 59.0 °F 57.2 °F 94% 29.79 in 8.0 mi ESE 12.7 mph 18.4 mph 0.03 in   Mostly Cloudy
6:10 PM 60.8 °F 57.2 °F 88% 29.79 in 10.0 mi SE 11.5 mph - 0.01 in   Mostly Cloudy
6:30 PM 60.8 °F 55.4 °F 82% 29.77 in 10.0 mi SE 18.4 mph 27.6 mph 0.02 in   Overcast
6:50 PM 59.0 °F 55.4 °F 88% 29.76 in 5.0 mi SE 21.9 mph 26.5 mph 0.02 in   Overcast
7:10 PM 59.0 °F 55.4 °F 88% 29.75 in 10.0 mi SE 18.4 mph 26.5 mph N/A   Mostly Cloudy
7:30 PM 59.0 °F 57.2 °F 94% 29.75 in 9.0 mi SE 24.2 mph 31.1 mph 0.01 in   Overcast
7:50 PM 59.0 °F 57.2 °F 94% 29.76 in 5.0 mi SE 23.0 mph 27.6 mph 0.01 in   Mostly Cloudy
8:10 PM 59.0 °F 55.4 °F 88% 29.75 in 7.0 mi SE 19.6 mph - 0.01 in   Mostly Cloudy
8:30 PM 59.0 °F 57.2 °F 94% 29.77 in 4.0 mi SSE 16.1 mph - 0.01 in   Mostly Cloudy
8:50 PM 57.2 °F 57.2 °F 100% 29.79 in 2.5 mi SSE 11.5 mph - 0.02 in   Mostly Cloudy
9:10 PM 57.2 °F 57.2 °F 100% 29.79 in 8.0 mi South 3.5 mph - N/A   Mostly Cloudy
9:30 PM 57.2 °F 57.2 °F 100% 29.79 in 10.0 mi SE 10.4 mph - 0.01 in   Mostly Cloudy
9:50 PM 57.2 °F 57.2 °F 100% 29.79 in 10.0 mi SSE 11.5 mph - 0.01 in   Overcast
10:10 PM 57.2 °F 57.2 °F 100% 29.80 in 1.5 mi SSW 4.6 mph - 0.01 in   Overcast
10:30 PM 57.2 °F 57.2 °F 100% 29.80 in 10.0 mi Calm Calm - 0.01 in   Overcast
10:50 PM 57.2 °F 55.4 °F 94% 29.81 in 10.0 mi SW 8.1 mph - 0.01 in   Overcast
11:10 PM 57.2 °F 55.4 °F 94% 29.81 in 10.0 mi SW 5.8 mph - N/A   Mostly Cloudy
11:30 PM 57.2 °F 55.4 °F 94% 29.81 in 10.0 mi SW 8.1 mph - N/A   Scattered Clouds
11:50 PM 57.2 °F 53.6 °F 88% 29.82 in 10.0 mi SW 8.1 mph - N/A   Partly Cloudy